Time,TemperatureF,DewpointF,PressureIn,WindDirection,WindDirectionDegrees,WindSpeedMPH,WindSpeedGustMPH,Humidity,HourlyPrecipIn,Conditions,Clouds,dailyrainin,SoftwareType,DateUTC
2013-02-10 00:00:00,45.8,42.0,29.77,WNW,282,2.0,-999.0,87,-99.99,,,0.02,weatherlink.com 1.10,2013-02-10 00:00:00,
2013-02-10 00:15:00,45.9,42.0,29.76,WNW,282,0.0,-999.0,87,-99.99,,,0.00,weatherlink.com 1.10,2013-02-10 00:15:00,
2013-02-10 00:30:00,46.0,42.0,29.74,West,281,0.0,-999.0,87,-99.99,,,0.01,weatherlink.com 1.10,2013-02-10 00:30:00,
2013-02-10 00:45:00,46.5,43.0,29.73,West,280,4.0,-999.0,87,-99.99,,,0.01,weatherlink.com 1.10,2013-02-10 00:45:00,
2013-02-10 01:00:00,46.9,43.0,29.72,West,261,4.0,-999.0,87,-99.99,,,0.02,weatherlink.com 1.10,2013-02-10 01:00:00,
2013-02-10 01:15:00,47.3,44.0,29.71,WSW,252,0.0,-999.0,87,-99.99,,,0.03,weatherlink.com 1.10,2013-02-10 01:15:00,
2013-02-10 01:29:00,47.6,44.0,29.70,SW,233,5.0,-999.0,87,-99.99,,,0.04,weatherlink.com 1.10,2013-02-10 01:29:00,
2013-02-10 01:44:00,47.8,44.0,29.68,SW,229,0.0,-999.0,87,-99.99,,,0.04,weatherlink.com 1.10,2013-02-10 01:44:00,
2013-02-10 01:59:00,47.8,44.0,29.67,SW,218,7.0,-999.0,87,-99.99,,,0.05,weatherlink.com 1.10,2013-02-10 01:59:00,
2013-02-10 02:14:00,47.9,45.0,29.65,SSW,202,4.0,-999.0,88,-99.99,,,0.05,weatherlink.com 1.10,2013-02-10 02:14:00,
2013-02-10 02:29:00,48.0,45.0,29.64,SSW,201,7.0,-999.0,88,-99.99,,,0.05,weatherlink.com 1.10,2013-02-10 02:29:00,
2013-02-10 02:44:00,47.8,44.0,29.62,SSW,194,10.0,-999.0,87,-99.99,,,0.06,weatherlink.com 1.10,2013-02-10 02:44:00,
2013-02-10 02:59:00,47.8,44.0,29.60,South,190,6.0,-999.0,87,-99.99,,,0.06,weatherlink.com 1.10,2013-02-10 02:59:00,
2013-02-10 03:14:00,47.9,45.0,29.58,South,187,2.0,-999.0,88,-99.99,,,0.08,weatherlink.com 1.10,2013-02-10 03:14:00,
2013-02-10 03:29:00,48.1,45.0,29.57,South,184,4.0,-999.0,88,-99.99,,,0.09,weatherlink.com 1.10,2013-02-10 03:29:00,
2013-02-10 03:44:00,48.2,45.0,29.55,SSW,203,11.0,-999.0,88,-99.99,,,0.11,weatherlink.com 1.10,2013-02-10 03:44:00,
2013-02-10 03:59:00,48.2,45.0,29.53,SSW,199,5.0,-999.0,88,-99.99,,,0.13,weatherlink.com 1.10,2013-02-10 03:59:00,
2013-02-10 04:14:00,48.3,45.0,29.51,SSW,203,9.0,-999.0,88,-99.99,,,0.16,weatherlink.com 1.10,2013-02-10 04:14:00,
2013-02-10 04:29:00,48.6,45.0,29.51,SW,219,6.0,-999.0,88,-99.99,,,0.17,weatherlink.com 1.10,2013-02-10 04:29:00,
2013-02-10 04:44:00,48.8,45.0,29.49,SW,217,7.0,-999.0,88,-99.99,,,0.19,weatherlink.com 1.10,2013-02-10 04:44:00,
2013-02-10 04:59:00,48.9,46.0,29.48,SW,235,6.0,-999.0,88,-99.99,,,0.20,weatherlink.com 1.10,2013-02-10 04:59:00,
2013-02-10 05:14:00,49.1,46.0,29.47,SW,222,1.0,-999.0,88,-99.99,,,0.22,weatherlink.com 1.10,2013-02-10 05:14:00,
2013-02-10 05:29:00,49.0,46.0,29.45,SW,222,4.0,-999.0,88,-99.99,,,0.23,weatherlink.com 1.10,2013-02-10 05:29:00,
2013-02-10 05:44:00,49.1,46.0,29.44,SW,222,3.0,-999.0,88,-99.99,,,0.23,weatherlink.com 1.10,2013-02-10 05:44:00,
2013-02-10 05:59:00,49.0,46.0,29.43,SW,221,5.0,-999.0,88,-99.99,,,0.23,weatherlink.com 1.10,2013-02-10 05:59:00,
2013-02-10 06:14:00,48.8,45.0,29.42,SW,221,2.0,-999.0,88,-99.99,,,0.24,weatherlink.com 1.10,2013-02-10 06:14:00,
2013-02-10 06:29:00,48.5,45.0,29.42,SW,221,1.0,-999.0,88,-99.99,,,0.24,weatherlink.com 1.10,2013-02-10 06:29:00,
2013-02-10 06:44:00,47.8,44.0,29.40,SW,221,0.0,-999.0,87,-99.99,,,0.24,weatherlink.com 1.10,2013-02-10 06:44:00,
2013-02-10 06:59:00,47.3,44.0,29.40,SW,221,2.0,-999.0,87,-99.99,,,0.24,weatherlink.com 1.10,2013-02-10 06:59:00,
2013-02-10 07:14:00,47.1,44.0,29.39,SW,221,2.0,-999.0,87,-99.99,,,0.24,weatherlink.com 1.10,2013-02-10 07:14:00,
2013-02-10 07:29:00,47.0,43.0,29.38,SW,221,1.0,-999.0,87,-99.99,,,0.24,weatherlink.com 1.10,2013-02-10 07:29:00,
2013-02-10 07:44:00,46.9,43.0,29.38,SW,221,3.0,-999.0,87,-99.99,,,0.24,weatherlink.com 1.10,2013-02-10 07:44:00,
2013-02-10 07:59:00,47.0,43.0,29.37,WSW,255,4.0,-999.0,87,-99.99,,,0.24,weatherlink.com 1.10,2013-02-10 07:59:00,
2013-02-10 08:14:00,47.1,44.0,29.37,West,259,3.0,-999.0,87,-99.99,,,0.24,weatherlink.com 1.10,2013-02-10 08:14:00,
2013-02-10 08:29:00,47.3,44.0,29.36,West,273,7.0,-999.0,88,-99.99,,,0.24,weatherlink.com 1.10,2013-02-10 08:29:00,
2013-02-10 08:44:00,44.8,41.0,29.36,NW,322,23.0,-999.0,87,-99.99,,,0.24,weatherlink.com 1.10,2013-02-10 08:44:00,
2013-02-10 08:59:00,44.5,41.0,29.35,NNW,330,13.0,-999.0,86,-99.99,,,0.24,weatherlink.com 1.10,2013-02-10 08:59:00,
2013-02-10 09:14:00,44.5,41.0,29.35,NW,309,16.0,-999.0,86,-99.99,,,0.24,weatherlink.com 1.10,2013-02-10 09:14:00,
2013-02-10 09:29:00,44.7,41.0,29.35,NW,317,13.0,-999.0,85,-99.99,,,0.24,weatherlink.com 1.10,2013-02-10 09:29:00,
2013-02-10 09:44:00,44.7,41.0,29.34,NW,315,10.0,-999.0,85,-99.99,,,0.24,weatherlink.com 1.10,2013-02-10 09:44:00,
2013-02-10 09:59:00,44.9,41.0,29.33,NNW,333,11.0,-999.0,85,-99.99,,,0.24,weatherlink.com 1.10,2013-02-10 09:59:00,
2013-02-10 10:14:00,45.1,41.0,29.32,NNW,331,11.0,-999.0,85,-99.99,,,0.24,weatherlink.com 1.10,2013-02-10 10:14:00,
2013-02-10 10:29:00,45.2,41.0,29.32,NW,313,10.0,-999.0,85,-99.99,,,0.24,weatherlink.com 1.10,2013-02-10 10:29:00,
2013-02-10 10:44:00,45.3,41.0,29.32,NNW,339,8.0,-999.0,85,-99.99,,,0.24,weatherlink.com 1.10,2013-02-10 10:44:00,
2013-02-10 10:59:00,45.2,41.0,29.32,NNW,329,11.0,-999.0,85,-99.99,,,0.24,weatherlink.com 1.10,2013-02-10 10:59:00,
2013-02-10 11:14:00,45.0,41.0,29.31,NNW,328,6.0,-999.0,84,-99.99,,,0.24,weatherlink.com 1.10,2013-02-10 11:14:00,
2013-02-10 11:29:00,45.0,41.0,29.29,North,5,7.0,-999.0,84,-99.99,,,0.24,weatherlink.com 1.10,2013-02-10 11:29:00,
2013-02-10 11:44:00,44.9,40.0,29.29,NNW,348,6.0,-999.0,84,-99.99,,,0.24,weatherlink.com 1.10,2013-02-10 11:44:00,
2013-02-10 11:59:00,45.0,41.0,29.29,NNW,346,9.0,-999.0,84,-99.99,,,0.24,weatherlink.com 1.10,2013-02-10 11:59:00,
2013-02-10 12:15:00,45.2,41.0,29.30,WNW,302,2.0,-999.0,84,-99.99,,,0.24,weatherlink.com 1.10,2013-02-10 12:15:00,
2013-02-10 12:29:00,45.2,40.0,29.29,NW,308,3.0,-999.0,83,-99.99,,,0.24,weatherlink.com 1.10,2013-02-10 12:29:00,
2013-02-10 12:44:00,44.9,40.0,29.29,NW,317,5.0,-999.0,83,-99.99,,,0.26,weatherlink.com 1.10,2013-02-10 12:44:00,
2013-02-10 12:59:00,44.2,40.0,29.28,WNW,294,15.0,-999.0,84,-99.99,,,0.29,weatherlink.com 1.10,2013-02-10 12:59:00,
2013-02-10 13:14:00,44.3,40.0,29.28,NW,325,13.0,-999.0,84,-99.99,,,0.30,weatherlink.com 1.10,2013-02-10 13:14:00,
2013-02-10 13:29:00,43.8,39.0,29.28,NW,306,11.0,-999.0,82,-99.99,,,0.30,weatherlink.com 1.10,2013-02-10 13:29:00,
2013-02-10 13:44:00,42.7,38.0,29.28,NW,323,11.0,-999.0,83,-99.99,,,0.33,weatherlink.com 1.10,2013-02-10 13:44:00,
2013-02-10 14:00:00,44.1,39.0,29.27,NW,325,12.0,-999.0,83,-99.99,,,0.33,weatherlink.com 1.10,2013-02-10 14:00:00,
2013-02-10 14:15:00,45.3,40.0,29.27,NNW,331,11.0,-999.0,80,-99.99,,,0.33,weatherlink.com 1.10,2013-02-10 14:15:00,
2013-02-10 14:29:00,45.5,39.0,29.27,NNW,333,13.0,-999.0,79,-99.99,,,0.33,weatherlink.com 1.10,2013-02-10 14:29:00,
2013-02-10 14:44:00,46.0,40.0,29.27,NNW,336,21.0,-999.0,79,-99.99,,,0.33,weatherlink.com 1.10,2013-02-10 14:44:00,
2013-02-10 14:59:00,45.9,39.0,29.27,NW,321,30.0,-999.0,77,-99.99,,,0.33,weatherlink.com 1.10,2013-02-10 14:59:00,
2013-02-10 15:14:00,45.8,39.0,29.27,NNW,335,18.0,-999.0,76,-99.99,,,0.33,weatherlink.com 1.10,2013-02-10 15:14:00,
2013-02-10 15:30:00,44.9,38.0,29.27,NNW,331,12.0,-999.0,76,-99.99,,,0.33,weatherlink.com 1.10,2013-02-10 15:30:00,
2013-02-10 15:44:00,45.2,37.0,29.27,NNW,340,23.0,-999.0,74,-99.99,,,0.33,weatherlink.com 1.10,2013-02-10 15:44:00,
2013-02-10 15:59:00,45.2,37.0,29.27,NNW,334,10.0,-999.0,74,-99.99,,,0.33,weatherlink.com 1.10,2013-02-10 15:59:00,
2013-02-10 16:14:00,44.4,37.0,29.27,NNW,333,12.0,-999.0,76,-99.99,,,0.33,weatherlink.com 1.10,2013-02-10 16:14:00,
2013-02-10 16:29:00,44.0,37.0,29.27,NW,319,10.0,-999.0,76,-99.99,,,0.33,weatherlink.com 1.10,2013-02-10 16:29:00,
2013-02-10 16:44:00,43.8,36.0,29.27,NW,316,13.0,-999.0,73,-99.99,,,0.33,weatherlink.com 1.10,2013-02-10 16:44:00,
2013-02-10 16:59:00,43.3,35.0,29.27,NW,317,10.0,-999.0,73,-99.99,,,0.33,weatherlink.com 1.10,2013-02-10 16:59:00,
2013-02-10 17:14:00,43.0,35.0,29.27,NW,321,13.0,-999.0,73,-99.99,,,0.33,weatherlink.com 1.10,2013-02-10 17:14:00,
2013-02-10 17:29:00,43.0,35.0,29.28,NW,324,9.0,-999.0,73,-99.99,,,0.33,weatherlink.com 1.10,2013-02-10 17:29:00,
2013-02-10 17:45:00,42.7,35.0,29.27,NW,316,7.0,-999.0,74,-99.99,,,0.33,weatherlink.com 1.10,2013-02-10 17:45:00,
2013-02-10 17:59:00,42.6,35.0,29.27,NW,319,9.0,-999.0,75,-99.99,,,0.33,weatherlink.com 1.10,2013-02-10 17:59:00,
2013-02-10 18:14:00,42.5,35.0,29.27,NW,321,6.0,-999.0,76,-99.99,,,0.33,weatherlink.com 1.10,2013-02-10 18:14:00,
2013-02-10 18:29:00,42.4,35.0,29.28,NW,323,10.0,-999.0,76,-99.99,,,0.33,weatherlink.com 1.10,2013-02-10 18:29:00,
2013-02-10 18:45:00,42.2,35.0,29.28,NW,319,7.0,-999.0,76,-99.99,,,0.33,weatherlink.com 1.10,2013-02-10 18:45:00,
2013-02-10 19:00:00,42.0,35.0,29.28,NW,314,7.0,-999.0,76,-99.99,,,0.33,weatherlink.com 1.10,2013-02-10 19:00:00,
2013-02-10 19:14:00,42.3,36.0,29.28,NW,314,15.0,-999.0,77,-99.99,,,0.33,weatherlink.com 1.10,2013-02-10 19:14:00,
2013-02-10 19:29:00,42.3,36.0,29.27,NW,311,9.0,-999.0,77,-99.99,,,0.34,weatherlink.com 1.10,2013-02-10 19:29:00,
2013-02-10 19:44:00,42.2,35.0,29.27,NW,318,10.0,-999.0,77,-99.99,,,0.34,weatherlink.com 1.10,2013-02-10 19:44:00,
2013-02-10 19:59:00,41.5,35.0,29.28,NW,315,11.0,-999.0,77,-99.99,,,0.34,weatherlink.com 1.10,2013-02-10 19:59:00,
2013-02-10 20:15:00,41.3,34.0,29.27,NW,315,6.0,-999.0,75,-99.99,,,0.34,weatherlink.com 1.10,2013-02-10 20:15:00,
2013-02-10 20:30:00,41.3,34.0,29.27,NW,313,6.0,-999.0,74,-99.99,,,0.34,weatherlink.com 1.10,2013-02-10 20:30:00,
2013-02-10 20:45:00,41.2,34.0,29.28,NW,309,6.0,-999.0,74,-99.99,,,0.34,weatherlink.com 1.10,2013-02-10 20:45:00,
2013-02-10 21:00:00,40.9,34.0,29.28,NW,308,7.0,-999.0,75,-99.99,,,0.34,weatherlink.com 1.10,2013-02-10 21:00:00,
2013-02-10 21:14:00,40.4,33.0,29.28,WNW,300,5.0,-999.0,75,-99.99,,,0.34,weatherlink.com 1.10,2013-02-10 21:14:00,
2013-02-10 21:29:00,39.7,33.0,29.28,WNW,298,6.0,-999.0,77,-99.99,,,0.34,weatherlink.com 1.10,2013-02-10 21:29:00,
2013-02-10 21:45:00,39.9,34.0,29.28,WNW,294,6.0,-999.0,79,-99.99,,,0.34,weatherlink.com 1.10,2013-02-10 21:45:00,
2013-02-10 21:59:00,39.5,34.0,29.29,WNW,293,5.0,-999.0,79,-99.99,,,0.34,weatherlink.com 1.10,2013-02-10 21:59:00,
2013-02-10 22:14:00,38.9,33.0,29.29,WNW,292,9.0,-999.0,79,-99.99,,,0.34,weatherlink.com 1.10,2013-02-10 22:14:00,
2013-02-10 22:29:00,39.1,33.0,29.29,WNW,288,7.0,-999.0,79,-99.99,,,0.34,weatherlink.com 1.10,2013-02-10 22:29:00,
2013-02-10 22:45:00,39.1,33.0,29.29,WNW,288,10.0,-999.0,80,-99.99,,,0.34,weatherlink.com 1.10,2013-02-10 22:45:00,
2013-02-10 22:59:00,39.2,33.0,29.29,WNW,286,5.0,-999.0,79,-99.99,,,0.34,weatherlink.com 1.10,2013-02-10 22:59:00,
2013-02-10 23:14:00,38.8,33.0,29.29,WNW,288,6.0,-999.0,79,-99.99,,,0.34,weatherlink.com 1.10,2013-02-10 23:14:00,
2013-02-10 23:29:00,38.3,33.0,29.29,WNW,286,4.0,-999.0,80,-99.99,,,0.34,weatherlink.com 1.10,2013-02-10 23:29:00,
2013-02-10 23:45:00,38.3,33.0,29.28,WNW,286,5.0,-999.0,80,-99.99,,,0.34,weatherlink.com 1.10,2013-02-10 23:45:00,
2013-02-10 23:59:00,38.8,33.0,29.28,WNW,286,6.0,-999.0,81,-99.99,,,0.34,weatherlink.com 1.10,2013-02-10 23:59:00,